Location: La Chapelle
(48.3135°N, 1.3085°W)
Time: 08:14:31
(UTC+00:00)

ATLAS CENTAUR R/B - Pass Details

Date: 03 March 2021
Orbit: 475 x 670 km, 64.7° (Epoch: 30 March)

Event Time Altitude Azimuth Distance (km) Brightness Sun altitude
Rises 18:18:37 0° 176° (S) 2,521 4.7 -5.1°
Reaches altitude 10° 18:21:18 10° 155° (SSE) 1,640 3.5 -5.6°
Maximum altitude 18:23:40 17° 114° (ESE) 1,286 2.7 -6.0°
Drops below altitude 10° 18:26:03 10° 73° (ENE) 1,652 3.1 -6.4°
Enters shadow 18:27:02 - 63° (ENE) 1,945 3.5 -6.5°
